| time (UTC) | temp C | wind direction | speed KPH | gust KPH | rain 1hr cm | rain 24hr cm | rain mn cm | humidity % | barometer mb |
| 20260504100553 | 5 | 324 | 0.0 | 0.0 | 0.00 | 0.00 | 0.00 | 79 | 1016.9 |
| 20260504081536 | 7 | 324 | 0.0 | 0.0 | 0.00 | 0.00 | 0.00 | 73 | 1016.2 |
| 20260504081035 | 7 | 324 | 0.0 | 0.0 | 0.00 | 0.00 | 0.00 | 72 | 1016.2 |
| 20260504080531 | 7 | 324 | 0.0 | 0.0 | 0.00 | 0.00 | 0.00 | 72 | 1016.2 |
| 20260504050516 | 13 | 324 | 0.0 | 0.0 | 0.00 | 0.00 | 0.00 | 56 | 1015.8 |
| 20260504050014 | 13 | 324 | 0.0 | 0.0 | 0.00 | 0.00 | 0.00 | 55 | 1015.8 |
| 20260504045513 | 13 | 324 | 0.0 | 0.0 | 0.00 | 0.00 | 0.00 | 54 | 1015.7 |
| 20260504045013 | 13 | 324 | 0.0 | 0.0 | 0.00 | 0.00 | 0.00 | 53 | 1015.8 |
| 20260504044513 | 14 | 324 | 0.0 | 0.0 | 0.00 | 0.00 | 0.00 | 53 | 1015.7 |
| 20260504044015 | 14 | 324 | 0.0 | 0.0 | 0.00 | 0.00 | 0.00 | 52 | 1015.7 |
| 20260504043513 | 15 | 324 | 0.0 | 0.0 | 0.00 | 0.00 | 0.00 | 52 | 1015.7 |
| 20260504043013 | 15 | 324 | 0.0 | 0.0 | 0.00 | 0.00 | 0.00 | 51 | 1015.6 |
| 20260504042512 | 15 | 324 | 0.0 | 1.6 | 0.00 | 0.00 | 0.00 | 51 | 1015.5 |
| 20260504042012 | 15 | 324 | 0.0 | 1.6 | 0.00 | 0.00 | 0.00 | 49 | 1015.6 |
| 20260504041512 | 15 | 324 | 0.0 | 0.0 | 0.00 | 0.00 | 0.00 | 49 | 1015.5 |
| 20260504041012 | 16 | 324 | 0.0 | 0.0 | 0.00 | 0.00 | 0.00 | 48 | 1015.4 |
| 20260504040512 | 16 | 324 | 0.0 | 0.0 | 0.00 | 0.00 | 0.00 | 47 | 1015.4 |
| 20260504040012 | 16 | 324 | 0.0 | 0.0 | 0.00 | 0.00 | 0.00 | 46 | 1015.2 |
| 20260504035514 | 16 | 324 | 0.0 | 0.0 | 0.00 | 0.00 | 0.00 | 46 | 1015.2 |
| 20260504035012 | 17 | 324 | 0.0 | 0.0 | 0.00 | 0.00 | 0.00 | 46 | 1015.1 |
| 20260504034514 | 17 | 324 | 0.0 | 0.0 | 0.00 | 0.00 | 0.00 | 46 | 1015.0 |
| 20260504034011 | 17 | 324 | 0.0 | 0.0 | 0.00 | 0.00 | 0.00 | 45 | 1015.0 |
| 20260504033516 | 17 | 324 | 0.0 | 0.0 | 0.00 | 0.00 | 0.00 | 42 | 1015.0 |
| 20260504033011 | 17 | 324 | 0.0 | 0.0 | 0.00 | 0.00 | 0.00 | 44 | 1014.9 |
| 20260504032511 | 17 | 324 | 0.0 | 0.0 | 0.00 | 0.00 | 0.00 | 44 | 1014.9 |
| 20260504032011 | 18 | 324 | 0.0 | 0.0 | 0.00 | 0.00 | 0.00 | 43 | 1014.8 |
| 20260504031511 | 18 | 324 | 0.0 | 0.0 | 0.00 | 0.00 | 0.00 | 43 | 1014.9 |
| 20260504031012 | 18 | 324 | 0.0 | 0.0 | 0.00 | 0.00 | 0.00 | 40 | 1014.7 |
| 20260504030510 | 19 | 324 | 0.0 | 0.0 | 0.00 | 0.00 | 0.00 | 39 | 1014.8 |
| 20260504030009 | 19 | 324 | 0.0 | 0.0 | 0.00 | 0.00 | 0.00 | 39 | 1014.8 |
| 20260504025509 | 20 | 324 | 0.0 | 3.2 | 0.00 | 0.00 | 0.00 | 38 | 1014.9 |
| 20260504025009 | 20 | 324 | 0.0 | 3.2 | 0.00 | 0.00 | 0.00 | 39 | 1014.9 |
| 20260504024509 | 20 | 324 | 0.0 | 1.6 | 0.00 | 0.00 | 0.00 | 37 | 1014.8 |
| 20260504024011 | 20 | 324 | 0.0 | 3.2 | 0.00 | 0.00 | 0.00 | 37 | 1014.9 |
| 20260504023509 | 20 | 324 | 0.0 | 3.2 | 0.00 | 0.00 | 0.00 | 34 | 1014.9 |
| 20260504023008 | 21 | 323 | 0.0 | 8.0 | 0.00 | 0.00 | 0.00 | 36 | 1014.9 |
| 20260504022508 | 21 | 323 | 0.0 | 8.0 | 0.00 | 0.00 | 0.00 | 35 | 1014.9 |
| 20260504022007 | 21 | 331 | 1.6 | 8.0 | 0.00 | 0.00 | 0.00 | 34 | 1014.9 |
| 20260504021506 | 21 | 331 | 0.0 | 8.0 | 0.00 | 0.00 | 0.00 | 34 | 1015.0 |
| 20260504021006 | 21 | 318 | 1.6 | 8.0 | 0.00 | 0.00 | 0.00 | 31 | 1015.0 |
| 20260504020505 | 21 | 318 | 1.6 | 8.0 | 0.00 | 0.00 | 0.00 | 32 | 1015.2 |
| 20260504020005 | 21 | 325 | 0.0 | 4.8 | 0.00 | 0.00 | 0.00 | 33 | 1015.2 |
| 20260504015505 | 21 | 325 | 0.0 | 8.0 | 0.00 | 0.00 | 0.00 | 33 | 1015.2 |
| 20260504015005 | 21 | 325 | 0.0 | 9.7 | 0.00 | 0.00 | 0.00 | 32 | 1015.2 |
| 20260504014515 | 21 | 323 | 1.6 | 9.7 | 0.00 | 0.00 | 0.00 | 32 | 1015.3 |
| 20260504014005 | 22 | 346 | 0.0 | 9.7 | 0.00 | 0.00 | 0.00 | 33 | 1015.3 |
| 20260504013504 | 22 | 344 | 1.6 | 9.7 | 0.00 | 0.00 | 0.00 | 31 | 1015.3 |
| 20260504013005 | 22 | 234 | 0.0 | 11.3 | 0.00 | 0.00 | 0.00 | 30 | 1015.3 |
| 20260504012504 | 22 | 332 | 0.0 | 6.4 | 0.00 | 0.00 | 0.00 | 31 | 1015.4 |
| 20260504012002 | 22 | 332 | 1.6 | 8.0 | 0.00 | 0.00 | 0.00 | 31 | 1015.5 |
| 20260504011503 | 22 | 312 | 1.6 | 8.0 | 0.00 | 0.00 | 0.00 | 32 | 1015.5 |
| 20260504011002 | 22 | 23 | 0.0 | 9.7 | 0.00 | 0.00 | 0.00 | 32 | 1015.5 |
| 20260504010501 | 22 | 331 | 3.2 | 9.7 | 0.00 | 0.00 | 0.00 | 30 | 1015.5 |
| 20260504010002 | 22 | 298 | 0.0 | 4.8 | 0.00 | 0.00 | 0.00 | 31 | 1015.5 |
| 20260504005501 | 22 | 298 | 1.6 | 4.8 | 0.00 | 0.00 | 0.00 | 30 | 1015.5 |
| 20260504005001 | 22 | 294 | 0.0 | 9.7 | 0.00 | 0.00 | 0.00 | 29 | 1015.6 |
| 20260504004600 | 22 | 294 | 0.0 | 9.7 | 0.00 | 0.00 | 0.00 | 30 | 1015.5 |
| 20260504004100 | 22 | 258 | 3.2 | 11.3 | 0.00 | 0.00 | 0.00 | 29 | 1015.7 |
| 20260504003559 | 22 | 246 | 0.0 | 8.0 | 0.00 | 0.00 | 0.00 | 29 | 1015.6 |
| 20260504003059 | 22 | 316 | 0.0 | 11.3 | 0.00 | 0.00 | 0.00 | 31 | 1015.7 |
| 20260504002559 | 22 | 317 | 6.4 | 11.3 | 0.00 | 0.00 | 0.00 | 30 | 1015.8 |
| 20260504002101 | 22 | 331 | 3.2 | 8.0 | 0.00 | 0.00 | 0.00 | 29 | 1015.8 |
| 20260504001611 | 22 | 336 | 0.0 | 11.3 | 0.00 | 0.00 | 0.00 | 31 | 1015.8 |
| 20260504001058 | 22 | 329 | 0.0 | 8.0 | 0.00 | 0.00 | 0.00 | 30 | 1015.9 |
| 20260504000557 | 22 | 52 | 1.6 | 8.0 | 0.00 | 0.00 | 0.00 | 29 | 1015.8 |
| 20260504000105 | 22 | 349 | 3.2 | 11.3 | 0.00 | 0.00 | 0.00 | 30 | 1015.9 |
| 20260503235556 | 22 | 327 | 3.2 | 9.7 | 0.00 | 0.00 | 0.00 | 31 | 1016.0 |
| 20260503235056 | 22 | 306 | 3.2 | 9.7 | 0.00 | 0.00 | 0.00 | 31 | 1016.0 |
| 20260503234555 | 22 | 52 | 0.0 | 8.0 | 0.00 | 0.00 | 0.00 | 31 | 1016.0 |
| 20260503234055 | 22 | 339 | 0.0 | 11.3 | 0.00 | 0.00 | 0.00 | 31 | 1016.1 |
| 20260503233557 | 22 | 87 | 1.6 | 8.0 | 0.00 | 0.00 | 0.00 | 31 | 1016.1 |
| 20260503233054 | 22 | 86 | 1.6 | 9.7 | 0.00 | 0.00 | 0.00 | 31 | 1016.2 |
| 20260503232553 | 22 | 354 | 0.0 | 8.0 | 0.00 | 0.00 | 0.00 | 31 | 1016.3 |
| 20260503232053 | 22 | 345 | 1.6 | 9.7 | 0.00 | 0.00 | 0.00 | 31 | 1016.4 |
| 20260503231554 | 22 | 86 | 0.0 | 6.4 | 0.00 | 0.00 | 0.00 | 32 | 1016.4 |
| 20260503231052 | 22 | 347 | 3.2 | 9.7 | 0.00 | 0.00 | 0.00 | 32 | 1016.5 |
| 20260503230553 | 22 | 321 | 1.6 | 12.9 | 0.00 | 0.00 | 0.00 | 31 | 1016.6 |
| 20260503230050 | 22 | 6 | 3.2 | 16.1 | 0.00 | 0.00 | 0.00 | 31 | 1016.6 |
| 20260503225548 | 22 | 171 | 1.6 | 11.3 | 0.00 | 0.00 | 0.00 | 33 | 1016.7 |
| 20260503225049 | 22 | 334 | 3.2 | 11.3 | 0.00 | 0.00 | 0.00 | 32 | 1016.7 |
| 20260503224550 | 22 | 319 | 1.6 | 11.3 | 0.00 | 0.00 | 0.00 | 32 | 1016.9 |
| 20260503224046 | 21 | 224 | 0.0 | 6.4 | 0.00 | 0.00 | 0.00 | 33 | 1017.0 |
| 20260503223545 | 21 | 228 | 1.6 | 11.3 | 0.00 | 0.00 | 0.00 | 33 | 1017.0 |
| 20260503223045 | 21 | 339 | 4.8 | 8.0 | 0.00 | 0.00 | 0.00 | 32 | 1017.1 |
| 20260503222544 | 21 | 241 | 3.2 | 12.9 | 0.00 | 0.00 | 0.00 | 33 | 1017.1 |
| 20260503222044 | 21 | 354 | 1.6 | 12.9 | 0.00 | 0.00 | 0.00 | 32 | 1017.2 |
| 20260503221543 | 21 | 347 | 4.8 | 12.9 | 0.00 | 0.00 | 0.00 | 32 | 1017.2 |
| 20260503221045 | 21 | 274 | 0.0 | 12.9 | 0.00 | 0.00 | 0.00 | 33 | 1017.3 |
| 20260503220541 | 21 | 260 | 3.2 | 17.7 | 0.00 | 0.00 | 0.00 | 32 | 1017.5 |
| 20260503220041 | 21 | 329 | 6.4 | 17.7 | 0.00 | 0.00 | 0.00 | 33 | 1017.6 |
| 20260503215540 | 22 | 311 | 3.2 | 11.3 | 0.00 | 0.00 | 0.00 | 33 | 1017.6 |
| 20260503215038 | 21 | 1 | 0.0 | 9.7 | 0.00 | 0.00 | 0.00 | 34 | 1017.6 |
| 20260503214544 | 21 | 2 | 3.2 | 8.0 | 0.00 | 0.00 | 0.00 | 35 | 1017.7 |
| 20260503214036 | 21 | 356 | 0.0 | 9.7 | 0.00 | 0.00 | 0.00 | 34 | 1017.7 |
| 20260503213535 | 21 | 233 | 1.6 | 9.7 | 0.00 | 0.00 | 0.00 | 34 | 1017.9 |
| 20260503213052 | 21 | 13 | 3.2 | 8.0 | 0.00 | 0.00 | 0.00 | 35 | 1017.9 |
| 20260503212536 | 21 | 327 | 0.0 | 8.0 | 0.00 | 0.00 | 0.00 | 33 | 1018.0 |
| 20260503212033 | 21 | 304 | 1.6 | 8.0 | 0.00 | 0.00 | 0.00 | 36 | 1018.2 |
| 20260503211542 | 21 | 242 | 0.0 | 12.9 | 0.00 | 0.00 | 0.00 | 36 | 1018.2 |
| 20260503211035 | 21 | 306 | 1.6 | 14.5 | 0.00 | 0.00 | 0.00 | 37 | 1018.3 |
| 20260503210532 | 20 | 210 | 4.8 | 14.5 | 0.00 | 0.00 | 0.00 | 37 | 1018.2 |
| 20260503210032 | 20 | 251 | 0.0 | 11.3 | 0.00 | 0.00 | 0.00 | 36 | 1018.3 |
| 20260503205530 | 20 | 317 | 1.6 | 11.3 | 0.00 | 0.00 | 0.00 | 36 | 1018.3 |
| 20260503205032 | 20 | 64 | 1.6 | 6.4 | 0.00 | 0.00 | 0.00 | 35 | 1018.3 |
| 20260503204541 | 20 | 284 | 3.2 | 6.4 | 0.00 | 0.00 | 0.00 | 36 | 1018.4 |
| 20260503204027 | 20 | 30 | 0.0 | 11.3 | 0.00 | 0.00 | 0.00 | 37 | 1018.4 |
| 20260503203527 | 20 | 329 | 4.8 | 11.3 | 0.00 | 0.00 | 0.00 | 37 | 1018.5 |
| 20260503203026 | 20 | 232 | 1.6 | 4.8 | 0.00 | 0.00 | 0.00 | 38 | 1018.5 |
| 20260503202525 | 20 | 229 | 0.0 | 4.8 | 0.00 | 0.00 | 0.00 | 39 | 1018.6 |
| 20260503202024 | 20 | 236 | 0.0 | 8.0 | 0.00 | 0.00 | 0.00 | 39 | 1018.6 |
| 20260503201525 | 20 | 265 | 3.2 | 8.0 | 0.00 | 0.00 | 0.00 | 38 | 1018.7 |
| 20260503201022 | 20 | 350 | 0.0 | 9.7 | 0.00 | 0.00 | 0.00 | 39 | 1018.8 |
| 20260503200521 | 20 | 344 | 0.0 | 9.7 | 0.00 | 0.00 | 0.00 | 39 | 1019.0 |
| 20260503200020 | 19 | 309 | 0.0 | 8.0 | 0.00 | 0.00 | 0.00 | 41 | 1018.9 |
| 20260503195518 | 19 | 305 | 1.6 | 8.0 | 0.00 | 0.00 | 0.00 | 40 | 1019.0 |
| 20260503195017 | 19 | 235 | 1.6 | 9.7 | 0.00 | 0.00 | 0.00 | 40 | 1019.0 |
| 20260503194522 | 18 | 260 | 1.6 | 9.7 | 0.00 | 0.00 | 0.00 | 41 | 1019.2 |
| 20260503194016 | 18 | 251 | 0.0 | 9.7 | 0.00 | 0.00 | 0.00 | 42 | 1019.2 |
| 20260503193515 | 18 | 252 | 0.0 | 9.7 | 0.00 | 0.00 | 0.00 | 42 | 1019.2 |
| 20260503193015 | 18 | 280 | 4.8 | 9.7 | 0.00 | 0.00 | 0.00 | 42 | 1019.1 |
| 20260503192512 | 18 | 228 | 1.6 | 8.0 | 0.00 | 0.00 | 0.00 | 43 | 1019.2 |
| 20260503192011 | 18 | 294 | 3.2 | 11.3 | 0.00 | 0.00 | 0.00 | 43 | 1019.3 |
| 20260503191510 | 17 | 246 | 4.8 | 11.3 | 0.00 | 0.00 | 0.00 | 44 | 1019.3 |
| 20260503191013 | 17 | 298 | 1.6 | 9.7 | 0.00 | 0.00 | 0.00 | 44 | 1019.3 |
| 20260503190510 | 17 | 317 | 0.0 | 8.0 | 0.00 | 0.00 | 0.00 | 44 | 1019.4 |
| 20260503190008 | 17 | 317 | 3.2 | 9.7 | 0.00 | 0.00 | 0.00 | 45 | 1019.6 |
| 20260503185511 | 17 | 335 | 6.4 | 9.7 | 0.00 | 0.00 | 0.00 | 47 | 1019.5 |
| 20260503185005 | 17 | 334 | 4.8 | 11.3 | 0.00 | 0.00 | 0.00 | 47 | 1019.6 |
| 20260503184505 | 17 | 284 | 0.0 | 9.7 | 0.00 | 0.00 | 0.00 | 48 | 1019.5 |
| 20260503184004 | 17 | 355 | 1.6 | 12.9 | 0.00 | 0.00 | 0.00 | 47 | 1019.6 |
| 20260503183503 | 16 | 237 | 4.8 | 12.9 | 0.00 | 0.00 | 0.00 | 48 | 1019.7 |
| 20260503183000 | 16 | 350 | 0.0 | 6.4 | 0.00 | 0.00 | 0.00 | 50 | 1019.7 |
| 20260503182600 | 16 | 356 | 3.2 | 11.3 | 0.00 | 0.00 | 0.00 | 50 | 1019.8 |
| 20260503182059 | 16 | 7 | 3.2 | 11.3 | 0.00 | 0.00 | 0.00 | 49 | 1019.9 |
| 20260503181600 | 16 | 267 | 3.2 | 9.7 | 0.00 | 0.00 | 0.00 | 49 | 1019.9 |
| 20260503181058 | 16 | 280 | 3.2 | 9.7 | 0.00 | 0.00 | 0.00 | 49 | 1019.9 |
| 20260503180558 | 16 | 332 | 0.0 | 9.7 | 0.00 | 0.00 | 0.00 | 50 | 1019.9 |
| 20260503180056 | 16 | 258 | 4.8 | 9.7 | 0.00 | 0.00 | 0.00 | 51 | 1019.9 |
| 20260503175554 | 16 | 338 | 1.6 | 6.4 | 0.00 | 0.00 | 0.00 | 50 | 1019.9 |
| 20260503175054 | 15 | 298 | 0.0 | 6.4 | 0.00 | 0.00 | 0.00 | 53 | 1019.8 |
| 20260503174609 | 15 | 225 | 0.0 | 6.4 | 0.00 | 0.00 | 0.00 | 53 | 1019.9 |
| 20260503174052 | 15 | 302 | 1.6 | 11.3 | 0.00 | 0.00 | 0.00 | 53 | 1020.0 |
| 20260503173551 | 15 | 279 | 3.2 | 11.3 | 0.00 | 0.00 | 0.00 | 53 | 1020.0 |
| 20260503173109 | 15 | 204 | 0.0 | 4.8 | 0.00 | 0.00 | 0.00 | 55 | 1020.0 |
| 20260503172549 | 15 | 52 | 0.0 | 9.7 | 0.00 | 0.00 | 0.00 | 55 | 1020.2 |
| 20260503172050 | 14 | 323 | 0.0 | 9.7 | 0.00 | 0.00 | 0.00 | 54 | 1020.3 |
| 20260503171548 | 14 | 354 | 0.0 | 8.0 | 0.00 | 0.00 | 0.00 | 56 | 1020.4 |
| 20260503171048 | 14 | 354 | 3.2 | 9.7 | 0.00 | 0.00 | 0.00 | 57 | 1020.6 |
| 20260503170547 | 14 | 343 | 4.8 | 9.7 | 0.00 | 0.00 | 0.00 | 55 | 1020.7 |
| 20260503150530 | 6 | 348 | 0.0 | 3.2 | 0.00 | 0.00 | 0.00 | 86 | 1021.1 |
| 20260503131017 | 3 | 348 | 0.0 | 0.0 | 0.00 | 0.00 | 0.00 | 85 | 1020.7 |
| 20260503130518 | 3 | 348 | 0.0 | 0.0 | 0.00 | 0.00 | 0.00 | 85 | 1020.6 |
| 20260503110558 | 5 | 348 | 0.0 | 0.0 | 0.00 | 0.00 | 0.00 | 80 | 1019.9 |